Location: Unspecified
(22.6800°N, 112.2000°E)
Time: 07:08:20
(UTC+08:00)

S-56A Canister/Altair - Pass Details

Date: 24 July 2021
Orbit: 632 x 2500 km, 38.9° (Epoch: 26 September)

Event Time Altitude Azimuth Distance (km) Brightness Sun altitude
Rises 19:36:56 0° 280° (W) 6,168 14.1 -5.2°
Reaches altitude 10° 19:41:33 10° 288° (WNW) 5,156 13.5 -6.2°
Maximum altitude 19:55:01 39° 352° (N) 3,058 10.9 -9.0°
Drops below altitude 10° 20:05:48 10° 57° (ENE) 4,148 11.0 -11.3°
Sets 20:09:04 0° 66° (ENE) 4,888 11.3 -11.9°
